Content
SEND FEEDBACK

Daily
Averages
Monthly
Summary
Philippines

QUEZON CITY, PHILIPPINES


Home > Asia > Philippines
Elevation: 151 feet     Latitude: 14 39N     Longitude: 121 03E

WEATHER
 
SELECT A DAY
Number of Records: 172,482;   Date Range: 7/1/96 - 7/26/14
 
SHARE

PRINT THIS DATA

[ ← Previous Day ]
WEATHER ALMANAC - FEBRUARY 4, 2013
[ Next Day → ]
[ °C ]   °F
Weather ElementAverageHighLow
Temperature81.4 °F89.6 °F (3:00 pm)74 °F (5:00 am)
Dewpoint68.2 °F70 °F (2:00 am)66 °F (8:00 am)
Humidity63.7 %78 % (1:00 am)39 % (2:00 pm)
Barometer29.97 in30.03 in (11:00 pm)29.89 in (3:00 pm)
Wind Speed8.3 mph16.1 mph (5:00 pm)
Weather ElementAverage
Visibility6.2 mi
Wind DirectionE (89 °)

Weather ElementTotal
Precipitation---
Cooling Degree Days16.8 (Base 65)
Growing Degree Days31.8 (Base 50)
Averaged from 29 records on February 4, 2013
WEATHER CONDITIONS BREAKOUT
WIND DIRECTION BREAKOUT
WEATHER BY HOUR - FEBRUARY 4, 2013
[ °C ]   °F
Local TimeTemperatureDewpointHumidityBarometerVisibilityWind DirectionWind SpeedGust SpeedPrecipitationEventsConditions
1:00 AM77.0 °F69.8 °F78 %29.98 in6.2 miEast (80°)6.9 mphPartly Cloudy
2:00 AM76.0 °F70.0 °F76 %29.98 in6.0 miEast (100°)2.2 mphHaze
2:00 AM77.0 °F69.8 °F78 %29.98 in6.2 miEast (100°)3.5 mphPartly Cloudy
3:00 AM77.0 °F68.0 °F74 %29.95 in6.2 miESE (110°)4.6 mphPartly Cloudy
4:00 AM75.2 °F68.0 °F78 %29.95 in6.2 miVariable2.3 mphPartly Cloudy
5:00 AM74.0 °F68.0 °F76 %29.96 in6.0 miNNE (30°)2.2 mphHaze
5:00 AM75.2 °F68.0 °F78 %29.95 in6.2 miNNE (30°)3.5 mphPartly Cloudy
6:00 AM75.2 °F68.0 °F78 %29.98 in6.2 miNE (40°)5.8 mphPartly Cloudy
7:00 AM75.2 °F66.2 °F73 %29.98 in6.2 miENE (70°)4.6 mphPartly Cloudy
8:00 AM79.0 °F66.0 °F57 %29.99 in6.0 miEast (80°)4.5 mphHaze
8:00 AM78.8 °F68.0 °F69 %30.01 in6.2 miEast (80°)4.6 mphPartly Cloudy
9:00 AM82.4 °F68.0 °F62 %30.01 in6.2 miEast (100°)10.4 mphPartly Cloudy
10:00 AM86.0 °F68.0 °F55 %30.01 in6.2 miESE (110°)11.5 mphPartly Cloudy
11:00 AM87.8 °F66.2 °F49 %30.01 in6.2 miESE (110°)15.0 mphPartly Cloudy
11:00 AM87.0 °F66.0 °F40 %29.99 in6.0 miESE (110°)15.7 mphPartly Cloudy
12:00 PM87.8 °F68.0 °F52 %29.98 in6.2 miESE (110°)13.8 mphPartly Cloudy
1:00 PM87.8 °F66.2 °F49 %29.92 in6.2 miESE (110°)13.8 mphPartly Cloudy
2:00 PM89.0 °F67.0 °F39 %29.90 in6.0 miEast (100°)13.4 mphPartly Cloudy
2:00 PM87.8 °F68.0 °F52 %29.92 in6.2 miEast (100°)13.8 mphPartly Cloudy
3:00 PM89.6 °F69.8 °F52 %29.89 in6.2 miESE (110°)11.5 mphPartly Cloudy
4:00 PM87.8 °F66.2 °F49 %29.89 in6.2 miESE (110°)13.8 mphPartly Cloudy
5:00 PM86.0 °F66.2 °F51 %29.92 in6.2 miESE (110°)16.1 mphPartly Cloudy
7:00 PM82.4 °F69.8 °F66 %29.95 in6.2 miEast (100°)10.4 mphPartly Cloudy
8:00 PM81.0 °F69.0 °F60 %29.99 in6.0 miEast (90°)4.5 mphScattered Clouds
8:00 PM80.6 °F69.8 °F70 %30.01 in6.2 miEast (90°)6.9 mphPartly Cloudy
9:00 PM80.6 °F69.8 °F70 %30.01 in6.2 miEast (90°)6.9 mphPartly Cloudy
10:00 PM78.8 °F69.8 °F74 %30.01 in6.2 miEast (90°)4.6 mphPartly Cloudy
11:00 PM79.0 °F70.0 °F68 %30.03 in6.0 miESE (110°)6.7 mphHaze
11:00 PM78.8 °F69.8 °F74 %30.01 in6.2 miESE (110°)5.8 mphPartly Cloudy
Hourly data recorded from RPLL, located miles away from Quezon City, Philippines







STORIES FROM OUR PARTNERS